www.pogodaiklimat.ru

Погода и климат >> Архив погоды >> Россия >> Амурская область >> Архара


АРХИВ ПОГОДЫ в Архаре

Время (UTC), дата Ветер
(напр.,м/с)
 
Видим.   Явления Облачность Т
(С)
Тd
(С)
f
(%)
Тe
(С)
Тes
(С)
Комфортность P
(гПа)
Po
(гПа)
Тmin
(С)
Tmax
(С)
R
(мм)
R24
(мм)
S
(см)
06 13.06 В 2 4000 м гроза, ливневой дождь 10/10 600 м
[Cb cap]
+15.1 +13.6 91 +15 +15 999.2 983.4
09 13.06 ЮВ 2 2000 м ливневой дождь {гроза} 10/10 600 м
[Cb cap]
+14.2 +13.1 93 +14 +14 999.4 983.6
12 13.06 СВ 2 20 км {гроза, ливн. осадки} 10/10 600 м
[Cb cap]
+14.4 +13.0 91 +14 +14 1001.3 985.4 +18.0 16
15 13.06 СВ 1 20 км 10/6 600 м
[Cb cap Ac und]
+12.9 +10.9 88 +13 +13 1002.3 986.3
18 13.06 СВ 2 20 км 10/4 1000 м
[Sc Ac und]
+11.4 +9.4 88 +10 +10 1003.0 986.9
21 13.06 СВ 2 20 км {ливн. осадки} 10/6 1000 м
[Cb cap Ac und]
+10.7 +9.1 90 +9 +9 1004.8 988.6
00 14.06 СВ 2 10 км ливневой дождь 10/8 1000 м
[Cb cap Ac und]
+10.9 +10.5 97 +9 +10 1005.3 989.1 +10.7 0.7
03 14.06 В 2 20 км {ливн. осадки} 10/6 1000 м
[Cb cap Ac und]
+13.2 +10.7 85 +12 +15 1006.8 990.7
06 14.06 ЮВ 1 10 км {ливн. осадки} 10/5 1000 м
[Cb cap Ac und]
+14.2 +11.0 81 +15 +17 1008.6 992.6
09 14.06 Ю 1 20 км {ливн. осадки} 10/5 1000 м
[Cb cap Ac und]
+14.2 +11.5 84 +15 +15 1009.7 993.7
12 14.06 СЗ 1 20 км {ливн. осадки} 10/10 1000 м
[Cb cap]
+10.1 +8.5 90 +10 +10 1012.3 995.9 +14.4 2
15 14.06 штиль 0 50 км 10/0
[Ac trans Ci fib]
+9.3 +8.1 92 +8 +8 1013.8 997.4
18 14.06 С 1 20 км 10/6 1000 м
[Cb cap Ac und]
+7.0 +5.9 93 +6 +6 1014.4 997.9
21 14.06 СВ 1 50 км 5/5 1000 м
[Cb cap]
+8.5 +5.2 80 +8 +9 1015.7 999.2
00 15.06 В 1 50 км 6/6 1000 м
[Cu hum]
+13.6 +6.1 60 +14 +19 1016.1 999.9 +6.9
03 15.06 С 2 50 км 8/8 1000 м
[Cu med, cong]
+18.2 +6.7 47 +19 +22 1014.5 998.6
06 15.06 СЗ 2 50 км 6/6 1000 м
[Cu med, cong]
+20.1 +7.4 44 +22 +27 комфорт 1012.9 997.2
09 15.06 СЗ 2 50 км 3/3 1000 м
[Cu med, cong]
+19.7 +5.3 39 +21 +23 комфорт 1012.3 996.5
12 15.06 С 1 50 км ясно +11.8 +8.6 81 +12 +12 1013.3 997.1 +21.0
15 15.06 В 2 50 км ясно +12.8 +5.1 59 +12 +12 1013.8 997.6
18 15.06 ЮВ 1 50 км ясно +10.7 +5.6 71 +11 +11 1014.6 998.3
21 15.06 ЮВ 1 50 км ясно +11.1 +6.1 71 +11 +13 1015.3 999.0
00 16.06 Ю 2 50 км ясно +16.4 +7.7 56 +17 +27 1014.8 998.7 +7.5
03 16.06 ЮЗ 1 50 км 3/3 1000 м
[Cu med, cong]
+19.9 +8.2 47 +22 +37 комфорт 1012.8 997.0
06 16.06 З 2 50 км 4/4 1000 м
[Cu med, cong]
+22.7 +3.2 28 +23 +30 комфорт 1010.3 994.6
09 16.06 З 1 50 км 8/3 1000 м
[Cu med, cong Ci fib]
+21.6 +4.2 32 +22 +24 комфорт 1009.3 993.6
12 16.06 СВ 1 50 км 3/0
[Ci fib]
+13.1 +8.9 76 +13 +13 1009.1 993.0 +23.1
15 16.06 штиль 0 50 км 10/0
[Ac trans Ci fib]
+7.9 +6.3 90 +7 +7 1009.4 993.0
18 16.06 ЮВ 1 50 км 10/8 600 м
[Cb cap Ac und]
+11.8 +8.1 78 +12 +12 1008.6 992.4
21 16.06 ЮВ 1 50 км в посл. час ливневой дождь 10/5 1000 м
[Cb cap Ac trans Ci fib]
+11.9 +9.1 83 +12 +12 1009.0 992.9
00 17.06 ЮВ 1 10 км слаб. ливневой дождь 10/10 600 м
[Cb cap]
+13.3 +12.0 92 +13 +13 1009.3 993.2 +7.5 0.3
03 17.06 ЮВ 2 20 км {ливн. осадки} 10/6 1000 м
[Cb cap Ac und]
+15.5 +12.1 80 +15 +17 1008.8 992.9
06 17.06 ЮВ 1 50 км {ливн. осадки} 10/10 600 м
[Cb cap]
+15.8 +10.4 70 +17 +17 1008.1 992.2
09 17.06 ЮВ 1 50 км 3/3 1000 м
[Cu hum]
+16.0 +11.6 75 +17 +19 1008.4 992.5
12 17.06 штиль 0 50 км 4/0
[Ac trans Ci fib]
+11.3 +9.5 89 +11 +11 1009.7 993.5 +18.0 0.7
15 17.06 штиль 0 50 км ясно +6.9 +5.7 92 +6 +6 1010.1 993.6
18 17.06 штиль 0 50 км 3/0
[Ci fib]
+4.6 +3.5 93 +3 +3 1009.9 993.3
21 17.06 Ю 1 500 м туман ясно +8.3 +7.2 93 +7 +9 1010.1 993.7
00 18.06 ЮВ 1 500 м туман ясно +10.5 +9.5 94 +10 +22 опасность
простуды
1009.5 993.3 +3.9
03 18.06 Ю 3 50 км {туман} 4/0
[Ac trans Ci fib]
+18.4 +11.8 65 +19 +31 опасность
простуды
1006.7 990.9
06 18.06 ЮЗ 2 50 км {туман} 4/0
[Ci fib]
+21.9 +12.0 53 +24 +36 комфорт 1003.9 988.4
09 18.06 З 1 50 км 3/0
[Ci fib]
+23.4 +8.8 39 +25 +28 комфорт 1001.8 986.3
12 18.06 ЮВ 1 50 км 8/8 1000 м
[Cb cap]
+16.6 +12.1 75 +17 +17 1001.0 985.3 +23.8
15 18.06 ЮВ 1 20 км {гроза, ливн. осадки} 10/10 1000 м
[Cb cap]
+14.8 +12.1 84 +15 +15 1000.0 984.2
18 18.06 ЮВ 1 20 км {гроза, ливн. осадки} 10/10 1000 м
[Cb cap]
+13.3 +11.5 89 +13 +13 997.9 982.0
21 18.06 ЮВ 2 50 км слаб. ливневой дождь 10/5 1000 м
[Cb cap Ac trans Ci fib]
+13.5 +11.8 89 +13 +13 997.1 981.3
00 19.06 СЗ 1 10 км слаб. ливневой дождь 10/10 600 м
[Cb cap]
+12.5 +11.0 91 +12 +12 999.0 983.0 +12.1 2
03 19.06 СЗ 3 50 км {ливн. осадки} 8/8 1000 м
[Cu med, cong]
+16.1 +8.1 59 +16 +19 1000.3 984.5
06 19.06 СЗ 4-11
{11}
50 км {ливн. осадки} 8/6 1000 м
[Cb cap Ac trans Ci fib]
+15.9 +6.7 54 +15 +18 1000.8 985.0
09 19.06 СЗ 1
{11}
4000 м слаб. ливневой дождь 10/10 600 м
[Cb cap]
+10.8 +8.2 84 +10 +10 1001.7 985.6
12 19.06 СЗ 1 20 км {ливн. осадки} 10/10 600 м
[Cb cap]
+9.0 +7.1 88 +8 +8 1002.8 986.6 +17.3 0.0
15 19.06 ЮЗ 1 20 км 10/10 1000 м
[Cb cap]
+8.0 +6.5 90 +7 +7 1003.6 987.3
18 19.06 С 1 20 км в посл. час ливневой дождь 10/10 600 м
[Cb cap]
+6.3 +5.1 92 +5 +5 1003.9 987.5
21 19.06 С 1 4000 м слаб. ливневой дождь 10/10 600 м
[Cb cap]
+7.5 +6.4 93 +6 +6 1005.4 989.1
00 20.06 СВ 2 50 км {ливн. осадки} 10/4 1000 м
[Cb cap Ac trans Ci fib]
+14.9 +11.1 78 +15 +18 1005.8 989.9 +4.3 0.3
03 20.06 С 2 50 км 10/8 600 м
[Cb cap Ac und]
+16.2 +11.8 75 +16 +17 1006.8 990.9

 

Местоположение метеостанции Архара (Амурская область, Россия): широта 49.42 долгота 130.00 высота над уровнем моря 135 м.

В архиве по умолчанию представлена погода в Архаре за последнюю неделю. Архивные данные за месяц целиком и за предыдущие месяцы, начиная с января 2011 года, Вы можете получить, выбрав интересующий диапазон дат из раскрывающегося списка и нажав кнопку "Ввод!".


*Определитесь, кто Вы:
робот инопланетянин человек

Внимание! Время в таблицах - всемирное. Для получения местного времени необходимо прибавить поправку, которая равна 9 ч.

Смотрите также архив погоды в соседних городах и на ближайших метеорологических станциях:

Погода в Малиновке (Амурская область, Россия) (41 км)
Погода в Облучье (Еврейская автономная область, Россия) (86 км)
Погода в Завитае (Амурская область, Россия) (89 км)
Погода в Поярково (Амурская область, Россия) (104 км)
Погода в Екатеринославке (Амурская область, Россия) (128 км)
Погода в Сектагли (Хабаровский край, Россия) (133 км)
Погода в Константиновке (Амурская область, Россия) (153 км)
Погода в Братолюбовке (Амурская область, Россия) (159 км)
Погода в Сутуре (Хабаровский край, Россия) (167 км)
Погода в Суньу (Хэйлунцзян, Китай) (192 км)

Пояснения к столбцам:

Ветер - указаны скорость ветра в м/с - средняя за 10 мин, порывы в срок и между сроками (в фигурных скобках) и направление, откуда дует ветер: С - северный, СВ - северо-восточный, В - восточный, ЮВ - юго-восточный, Ю - южный, ЮЗ - юго-западный, З - западный, СЗ - северо-западный.
Видимость - горизонтальная дальность видимости в метрах или километрах. При видимости от 1 до 10 км при отсутствии осадков обычно наблюдается дымка, при ухудшении видимости до 1 км и менее - туман. В сухую погоду видимость может ухудшаться дымом, пылью или мглою.
Явления - указаны атмосферные явления, наблюдавшиеся в срок или в последний час перед сроком; фигурными скобками обозначены явления, наблюдавшиеся между сроками (за 1-3 часа до срока); квадратными скобками обозначены град или гололедные отложения с указанием их диаметра в мм.
Облачность - указаны через наклонную черту общая и нижняя облачность в баллах и высота нижней границы облаков в метрах; квадратными скобками обозначены формы облаков: Ci - перистые, Cs - перисто-слоистые, Cc - перисто-кучевые, Ac - высококучевые, As - высокослоистые, Sc - слоисто-кучевые, Ns - слоисто-дождевые, Cu - кучевые, Cb - кучево-дождевые. Подробнее классификацию облаков см. в Атласе облаков (PDF).
T - Температура воздуха - температура, измеренная на высоте 2 м над землей.
Td - Температура точки росы - температура, при понижении до которой содержащийся в воздухе водяной пар достигнет насыщения.
f - Относительная влажность воздуха - влажноcть воздуха, измеренная на высоте 2 м над землей.
Te - Эффективная температура - температура, которую ощущает одетый по сезону человек в тени. Характеристика душности погоды. При расчете учитывается влияние влажности воздуха и скорости ветра на теплоощущения человека.
Tes - Эффективная температура на солнце - температура, которую ощущает человек, с поправкой на солнечный нагрев. Характеристика знойности погоды. Зависит от высоты солнца над горизонтом, облачности и скорости ветра. Ночью, в пасмурную погоду, а также при ветре 12 м/с и более поправка равна нулю.
P - Атмосферное давление - приведенное к уровню моря атмосферное давление.
Po - Атмосферное давление - измеренное на уровне метеостанции атмосферное давление.
Tmin - Минимальная температура - минимум температуры воздуха на высоте 2 м над землей.
Tmax - Максимальная температура - максимум температуры воздуха на высоте 2 м над землей.
R - Количество осадков - Количество выпавших осадков за период времени, мм. При наведении курсора мыши на число - период времени, за который выпало указанное количество осадков.
R24 - Количество осадков - Количество выпавших осадков за 24 часа, мм.
S - Снежный покров - Высота снежного покрова, см. При наведении курсора мыши на число - состояние снежного покрова и степень покрытия местности в баллах.